GW0865 Weather Reports


time (UTC)temp
C
wind
direction
speed
KPH
gust
KPH
rain 1hr
cm
rain 24hr
cm
rain mn
cm
humidity
%
barometer
mb
20260502163038 17 82 0.0 3.2 0.00 0.00 0.00 66 1011.2
20260502161538 17 0 0.0 3.2 0.00 0.00 0.00 65 1011.3
20260502151546 17 54 1.6 3.2 0.00 0.00 0.00 63 1012.3
20260502123040 16 246 6.4 12.9 0.00 0.00 0.00 64 1014.6
20260502121539 16 306 4.8 14.5 0.00 0.00 0.00 63 1014.8
20260502114540 16 222 6.4 17.7 0.00 0.00 0.00 68 1015.2
20260502113040 15 233 6.4 16.1 0.00 0.00 0.00 67 1015.1
20260502111538 15 222 6.4 12.9 0.00 0.00 0.00 69 1015.2
20260502110042 15 248 3.2 12.9 0.00 0.00 0.00 71 1015.5
20260502104547 15 283 6.4 11.3 0.00 0.00 0.00 72 1015.8
20260502103051 15 249 4.8 12.9 0.00 0.00 0.00 73 1016.1
20260502101600 14 227 4.8 11.3 0.00 0.00 0.00 71 1016.0
20260502070044 9 0 0.0 1.6 0.00 0.00 0.00 96 1017.0
20260502064544 8 0 0.0 1.6 0.00 0.00 0.00 96 1017.0
20260502063040 8 256 0.0 1.6 0.00 0.00 0.00 96 1017.0
20260502061542 8 327 0.0 3.2 0.00 0.00 0.00 96 1016.7
20260502060038 8 290 0.0 1.6 0.00 0.00 0.00 97 1016.7
20260502054548 8 0 0.0 1.6 0.00 0.00 0.00 97 1016.7
20260502053053 8 0 0.0 1.6 0.00 0.00 0.00 97 1016.9
20260502051553 8 0 0.0 1.6 0.00 0.00 0.00 97 1016.7
20260502050040 8 0 0.0 1.6 0.00 0.00 0.00 97 1016.8
20260502044540 8 244 1.6 4.8 0.00 0.00 0.00 96 1016.8
20260502043040 8 237 0.0 6.4 0.00 0.00 0.00 96 1016.8
20260502041540 9 215 0.0 1.6 0.00 0.00 0.00 96 1016.8
20260502040042 9 236 0.0 4.8 0.00 0.00 0.00 96 1016.9
20260502034540 10 0 0.0 0.0 0.00 0.00 0.00 96 1016.9
20260502033042 10 182 0.0 4.8 0.00 0.00 0.00 96 1017.1
20260502031543 10 274 0.0 3.2 0.00 0.00 0.00 95 1017.0
20260502030037 10 250 1.6 4.8 0.00 0.00 0.00 95 1017.1
20260502024544 10 236 0.0 1.6 0.00 0.00 0.00 94 1017.2
20260502023041 10 253 0.0 3.2 0.00 0.00 0.00 94 1017.1
20260502021539 11 0 0.0 1.6 0.00 0.00 0.00 94 1017.2
20260502020038 11 238 0.0 1.6 0.00 0.00 0.00 94 1017.4
20260502014538 11 0 0.0 1.6 0.00 0.00 0.00 94 1017.5
20260502013054 10 235 0.0 1.6 0.00 0.00 0.00 94 1017.6
20260502011602 10 0 0.0 1.6 0.00 0.00 0.00 94 1017.7
20260502010045 10 0 0.0 1.6 0.00 0.00 0.00 94 1017.9
20260502004557 10 0 0.0 1.6 0.00 0.00 0.00 93 1018.1
20260502003038 11 0 0.0 1.6 0.00 0.00 0.00 93 1017.9
20260502001540 11 0 0.0 1.6 0.00 0.00 0.00 93 1018.0
20260502000105 11 0 0.0 1.6 0.00 0.00 0.00 92 1018.0
20260501234543 11 0 0.0 3.2 0.00 0.00 0.00 92 1018.2
20260501233041 12 248 0.0 4.8 0.00 0.00 0.00 91 1018.2
20260501231549 12 203 3.2 6.4 0.00 0.00 0.00 90 1018.3
20260501230038 13 222 1.6 3.2 0.00 0.00 0.00 89 1018.4
20260501224538 13 219 1.6 3.2 0.00 0.00 0.00 89 1018.3
20260501223042 13 0 0.0 4.8 0.00 0.00 0.00 89 1018.4
20260501221559 13 0 0.0 3.2 0.00 0.00 0.00 89 1018.4
20260501220045 13 0 1.6 3.2 0.00 0.00 0.00 89 1018.4
20260501214539 13 220 0.0 3.2 0.00 0.00 0.00 88 1018.4
20260501213040 13 243 3.2 4.8 0.00 0.00 0.00 88 1018.4
20260501211547 13 235 0.0 1.6 0.00 0.00 0.00 87 1018.2
20260501210041 13 229 0.0 3.2 0.00 0.00 0.00 87 1018.2
20260501204542 13 272 0.0 4.8 0.00 0.00 0.00 87 1018.3
20260501203039 13 282 0.0 6.4 0.00 0.00 0.00 86 1018.4
20260501201539 13 272 3.2 6.4 0.00 0.00 0.00 86 1018.3
20260501200043 13 272 0.0 4.8 0.00 0.00 0.00 85 1018.3
20260501194549 13 286 1.6 4.8 0.00 0.00 0.00 85 1018.3
20260501193043 13 234 0.0 4.8 0.00 0.00 0.00 84 1018.2
20260501191541 14 220 3.2 14.5 0.00 0.00 0.00 83 1018.2
20260501190054 14 251 4.8 11.3 0.00 0.00 0.00 82 1018.1
20260501184547 15 286 4.8 9.7 0.00 0.00 0.00 80 1018.0
20260501183038 15 330 1.6 12.9 0.00 0.00 0.00 80 1018.0
20260501181541 15 298 4.8 12.9 0.00 0.00 0.00 80 1017.9
20260501180038 15 313 6.4 9.7 0.00 0.00 0.00 81 1018.0
20260501174547 15 233 4.8 12.9 0.00 0.00 0.00 81 1017.9